METEOSAT-12 (MTG-I1)

Last updated on Thu Jul 03 2025 00:02:22 GMT+0000 (Coordinated Universal Time)

1 54743U 22170C 25183.42266964 -.00000001 00000+0 00000+0 0 9993 2 54743 0.6394 28.7825 0001574 76.1602 327.5946 1.00269593 9479
UTC large
Height (km)
Speed (km/s)
/
Latitude / Longitude
Inclination (degrees)
Orbital Period (minutes)
Azimuth
Elevation
Range (km)
Doppler Factor

Next 0 passes for location: London (51.5072 / 0.1276)

Sorry there are no passes over London.